User: anonymous   Login
Location: Unspecified
(0.0000°N, 0.0000°E)
Time: 09:29:28
(UTC+00:00)
Language:

OFEQ 11 - Orbit

View from above orbital plane
View from above orbital plane
View from above satellite
View from above satellite

Ground track
Ground track

The orbit data is extracted from the following two-line orbital elements,

1 41759U 16056A   19004.72572396 0.00002400  00000-0  69624-4 0    09
2 41759 141.9452 126.3531 0018195 193.9021 166.0971 15.34425276    03
Epoch (UTC): 04 January 2019 17:25:02
Eccentricity: 0.0018195
inclination: 141.9452°
perigee height: 450 km
apogee height: 475 km
right ascension of ascending node: 126.3531°
argument of perigee: 193.9021°
revolutions per day: 15.34425276
mean anomaly at epoch: 166.0971°
orbit number at epoch: 0

The dashed part of the orbit path shows where the satellite is in the earth's shadow,  

DLR